Overview Statistics Trail Chart Weather Telemetry Raw packets
 

This is the latest recevied weather packets stored in our database for station/object WX4SGA. If no packets are shown the sender has not sent any weather packets the latest 10 day(s).

<< 81 82 83 84 85 86 87 >>
Time Temp. Humidity Pressure Rain* Wind** Luminosity Snow
1788024319 27.78° C 88% 1020.7 hPa 0 mm - 403 W/m² -
1788024015 27.22° C 89% 1020.7 hPa 0 mm - 529 W/m² -
1788023709 27.22° C 88% 1020.7 hPa 0 mm - 289 W/m² -
1788023400 26.67° C 88% 1020.7 hPa 0 mm - 274 W/m² -
1788023099 26.67° C 88% 1020.7 hPa 0 mm - 243 W/m² -
1788022797 26.67° C 90% 1020.7 hPa 0 mm - 249 W/m² -
1788022495 26.67° C 90% 1020.7 hPa 0 mm - 242 W/m² -
1788022191 26.67° C 90% 1021 hPa 0 mm - 221 W/m² -
1788021890 26.67° C 90% 1021 hPa 0 mm - 214 W/m² -
1788021590 26.67° C 90% 1021 hPa 0 mm - 224 W/m² -
1788021287 26.67° C 90% 1020.7 hPa 0 mm - 201 W/m² -
1788020983 26.67° C 90% 1021 hPa 0 mm - 217 W/m² -
1788020678 26.67° C 89% 1020.7 hPa 0 mm - 274 W/m² -
1788020373 26.67° C 89% 1020.7 hPa 0 mm - 359 W/m² -
1788020070 26.67° C 90% 1020.7 hPa 0 mm - 560 W/m² -
1788019770 26.11° C 92% 1020.7 hPa 0 mm - 329 W/m² -
1788019469 25.56° C 93% 1020.7 hPa 0 mm - 362 W/m² -
1788019166 26.11° C 94% 1020.7 hPa 0 mm - 213 W/m² -
1788018862 25.56° C 94% 1020.7 hPa 0 mm - 299 W/m² -
1788018556 25.56° C 94% 1020.7 hPa 0 mm - 306 W/m² -
1788018255 25.56° C 94% 1020.7 hPa 0 mm - 272 W/m² -
1788017952 25.56° C 96% 1020.7 hPa 0 mm - 346 W/m² -
1788017648 25° C 97% 1020.7 hPa 0 mm - 327 W/m² -
1788017344 25° C 98% 1020.7 hPa 0 mm - 204 W/m² -
1788017054 25° C 98% 1020.7 hPa 0 mm - 198 W/m² -

* Rain latest hour (hover to see other rain measurements)
** Current wind speed in m/s (hover to see current wind gust speed)